SKYSAT-C6

Last updated on Wed Oct 29 2025 00:02:31 GMT+0000 (Coordinated Universal Time)

1 42992U 17068F 25301.34723836 .00008632 00000+0 28984-3 0 9997 2 42992 97.4285 72.7400 0004062 165.7122 194.4235 15.31095679446816
UTC large
Height (km)
Speed (km/s)
/
Latitude / Longitude
Inclination (degrees)
Orbital Period (minutes)
Azimuth
Elevation
Range (km)
Doppler Factor

Next 0 passes for location: London (51.5072 / 0.1276)

Sorry there are no passes over London.